Lid_Strength_Index
3 3 3 4 5 6 7 8 11 6 5 10 10 10 10 8 8 6 8 9 10 12 12 13 13 13 10 7 7 11 9 11 14 13 9 8 9 10 11 14 15 14 13 12
3 3 4 5 6 6 8 10 10 6 6 13 12 10 10 9 9 8 8 9 9 9 12 14 12 11 7 7 8 10 9 12 17 16 13 10 12 10 10 11 13 16 15 12
3 3 4 5 6 6 8 10 12 9 9 10 11 12 12 11 8 8 7 8 8 9 12 11 13 12 9 7 7 7 8 11 14 18 15 12 14 11 10 12 15 14 13 12
3 3 4 5 6 6 8 10 12 11 12 11 11 11 11 12 12 8 8 9 9 10 14 13 13 12 11 9 7 8 10 14 12 11 11 12 12 12 12 13 12 15 12 13
3 4 4 5 6 6 8 10 11 9 11 11 11 12 11 12 11 11 10 10 8 10 12 12 13 12 13 12 9 10 9 14 12 13 13 13 14 12 12 12 11 12 11 13
4 4 4 6 5 7 10 9 8 10 12 12 12 12 11 11 10 9 8 9 9 10 9 9 9 9 8 9 10 11 11 12 14 17 13 14 16 13 12 11 10 11 14 10
4 4 4 6 5 6 8 9 9 11 13 12 12 11 10 10 10 11 9 8 9 7 6 7 7 7 8 8 9 8 12 12 13 17 15 20 13 9 9 10 10 9 9 9
4 5 4 5 6 6 7 8 9 10 13 12 11 10 10 9 9 9 9 7 6 5 7 10 12 13 12 11 9 9 9 11 15 18 18 15 12 11 12 12 13 9 10 9
4 4 4 5 5 6 7 7 7 8 12 12 10 11 10 11 11 9 8 6 5 5 8 11 15 17 15 14 12 8 9 10 14 16 19 20 13 10 8 9 16 9 8 9
5 5 4 4 5 5 6 7 7 8 12 10 9 10 11 9 10 11 9 8 7 5 10 13 14 16 12 16 15 14 13 13 15 16 17 14 10 9 8 15 15 9 8 8
6 5 4 4 4 5 6 7 7 8 10 10 9 8 9 9 9 11 8 7 7 9 12 12 12 14 13 14 12 13 15 15 16 14 16 18 8 9 13 10 8 7 7 7
6 5 4 4 4 5 6 8 7 7 9 10 7 8 7 8 7 9 8 7 8 8 10 10 10 13 12 13 16 9 15 12 14 14 14 9 7 8 7 7 7 7 7 7
6 5 5 4 3 4 5 7 8 9 10 10 10 8 6 5 6 5 8 6 5 6 6 8 10 13 12 14 14 12 10 10 12 12 10 10 8 8 8 6 6 6 6 6
6 6 5 4 3 4 5 7 8 9 10 13 9 5 6 4 4 5 5 4 4 5 6 7 9 12 10 12 12 12 11 10 12 11 9 8 8 9 9 6 6 6 6 7
6 6 5 4 4 4 5 6 7 7 10 11 9 7 5 4 4 4 5 5 6 6 7 8 9 8 10 11 12 12 11 12 13 12 10 10 10 9 7 7 6 7 7 8
5 5 4 4 5 6 7 10 7 7 7 11 12 6 6 5 3 5 6 5 5 5 7 7 6 7 10 12 13 12 11 9 9 10 9 9 8 8 6 7 6 7 7 8
5 4 4 5 5 7 9 10 7 6 6 9 11 10 6 5 4 3 5 4 5 5 6 7 7 7 9 12 13 12 10 9 8 8 8 9 10 10 7 7 6 6 8 8
4 4 5 5 6 7 9 7 6 6 7 9 11 10 8 5 6 6 4 6 5 5 6 7 7 7 9 13 11 10 10 9 9 9 9 10 9 9 6 7 7 8 9 9
4 5 6 7 8 10 9 5 5 5 8 10 9 10 10 5 6 6 5 5 9 6 7 7 8 9 11 10 11 10 10 10 10 9 9 10 11 11 10 8 9 8 9 8
6 7 9 10 8 6 4 6 10 10 9 9 10 7 9 7 7 7 6 6 8 10 8 7 8 9 7 7 8 9 10 9 9 10 11 11 12 12 12 11 10 10 9 9
8 9 9 7 6 6 7 8 10 10 11 8 8 8 8 5 8 7 6 8 8 12 10 9 10 10 8 7 7 7 8 9 9 10 10 11 11 11 12 12 12 11 11 11
7 8 7 7 8 8 9 10 9 10 10 7 8 7 7 6 6 7 6 9 8 12 7 10 12 8 7 7 8 7 7 8 9 10 10 11 11 11 12 12 12 12 12 12
5 8 9 9 10 12 12 13 11 10 8 7 7 8 6 6 5 7 8 10 11 7 10 11 9 8 7 7 7 7 7 7 8 9 10 10 11 11 12 13 13 12 12 12
8 9 13 12 13 11 10 10 9 6 6 6 6 7 7 6 8 7 10 8 8 12 13 12 9 8 6 6 6 6 7 7 7 8 9 10 11 12 12 12 12 13 14 13
10 9 13 11 9 8 8 7 7 6 4 5 6 6 6 7 9 8 9 11 13 12 11 8 7 6 6 6 6 6 6 6 6 7 7 8 10 11 13 13 13 13 14 14
8 9 11 8 9 8 8 7 7 5 5 4 5 8 9 10 9 11 11 12 13 10 7 6 6 6 6 6 6 6 6 6 6 6 7 8 10 11 13 13 13 14 14 14
10 10 7 8 8 9 8 7 7 5 6 8 8 11 11 8 11 11 9 11 8 6 5 5 5 5 5 5 6 5 5 5 5 6 7 8 9 10 12 14 13 13 14 14